Regional Weather Roundup
Issued by NWS Northern Indiana

Home | Current Version | Previous Version | Graphics & Text | Print | Product List | Glossary On
Versions: 1 2 3 4 5 6 7 8 9 10 11 12 13 14 15 16 17 18 19 20 21 22 23 24 25 26 27 28 29 30 31 32 33 34 35 36 37 38 39 40 41 42 43 44 45 46 47 48 49 50
000
ASUS43 KIWX 161110
RWRIWX

KIWX WEATHER ROUNDUP
NATIONAL WEATHER SERVICE NORTHERN INDIANA
600 AM EST MON JAN 16 2017

NOTE: "FAIR" INDICATES FEW OR NO CLOUDS BELOW 12,000 FEET WITH NO
SIGNIFICANT WEATHER AND/OR OBSTRUCTIONS TO VISIBILITY.

* THESE STATIONS ARE NOT UNDER NWS QUALITY CONTROL. THEY ALSO MAY NOT
  REPORT WEATHER SUCH AS PRECIPITATION OR FOG.

INZ001>027-161200-
NORTHERN INDIANA

CITY           SKY/WX    TMP DP  RH WIND       PRES   REMARKS
GARY*          CLOUDY    34  28  80 CALM      30.28F
VALPARAISO     CLOUDY    33  29  85 E5        30.27F FOG     WCI  29
LAPORTE*       CLOUDY    32  28  86 CALM      30.28F
KNOX*          CLOUDY    32  16  51 E3        30.27F
SOUTH BEND     CLOUDY    31  26  82 CALM      30.29R
GOSHEN         CLOUDY    32  25  75 S3        30.29S HAZE
ROCHESTER*     CLOUDY    34  32  93 E3        30.28S
WARSAW*        CLOUDY    32  23  69 CALM      30.29R
FORT WAYNE     CLOUDY    32  28  85 E6        30.29S FOG     WCI  26
PERU/GRISSOM   CLOUDY    33  33  99 E8        30.25S WCI  26
MARION*        CLOUDY    32  30  93 SE6       30.28F FOG     WCI  26

$$
INZ028>050-161200-
CENTRAL INDIANA

CITY           SKY/WX    TMP DP  RH WIND       PRES   REMARKS
LAFAYETTE      CLOUDY    34  32  92 E6        30.25F FOG     WCI  29
KOKOMO*        CLOUDY    33  31  92 SE7       30.27F FOG     WCI  27
MUNCIE*        CLOUDY    35  32  88 E7        30.27F FOG     WCI  29
INDIANAPOLIS   DRIZZLE   36  34  92 E8        30.24F FOG

$$
MIZ043>046-050>051-056>058-064>065-071>073-077>080-161200-
SOUTHWEST LOWER MICHIGAN

CITY           SKY/WX    TMP DP  RH WIND       PRES   REMARKS
BATTLE CREEK   CLOUDY    26  24  92 S3        30.30R
BENTON HARBOR  CLOUDY    31  24  75 E3        30.29R
COLDWATER*     CLOUDY    29  26  88 CALM      30.29S
HILLSDALE*     CLOUDY    28  23  80 SE6       30.28S FOG     WCI  22
HOLLAND        MOCLDY    24  21  88 CALM      30.30S
GRAND RAPIDS   MOCLDY    23  19  85 CALM      30.30S FOG
KALAMAZOO      CLOUDY    28  22  78 CALM      30.30S HAZE
STURGIS*       CLOUDY    29  25  84 SE5       30.28S WCI  24
THREE RIVERS*  CLOUDY    29  24  84 CALM      30.30S

$$
OHZ001>008-015>018-024>025-161200-
NORTHWEST OHIO

CITY           SKY/WX    TMP DP  RH WIND       PRES   REMARKS
DEFIANCE       CLOUDY    31  26  82 CALM      30.32S HAZE
FINDLAY        CLOUDY    32  26  78 E3        30.30S HAZE
TOLEDO EXPRESS CLOUDY    26  25  96 CALM      30.32S FOG
TOLEDO METCALF CLOUDY    28  25  88 CALM      30.34S FOG
LIMA           CLOUDY    32  31  96 SE3       30.29S FOG

$$
AND FOR LAKE MICHIGAN COASTAL AND OPEN LAKE BUOY OBSERVATIONS

STATION/POSITION TEMP    WIND        PRES    VSBY  WAVE
                 AIR SEA DIR/SP/G                  HT/PER
                 (F)     (DEG/KT/KT) (MB)    (MI)  (FT/S)
CALUMET HARBOR    33      90/  1/  2 1024.5F
MICHIGAN CITY     33      90/  3/  4   N/A
BURNS HARBOR      33     150/  3/  4 1025.7F
SAINT JOSEPH      31      CALM  /  1 1026.4

$$
&&




USA.gov is the U.S. government's official web portal to all federal, state and local government web resources and services.